Location: Leiter
(44.7178°N, 106.2687°W)
Time: 17:26:25
(UTC+00:00)

ESTCUBE 1 - Pass Details

Date: 30 June 2022
Orbit: 645 x 657 km, 97.9° (Epoch: 19 August)

Event Time Altitude Azimuth Distance (km) Brightness Sun altitude
Exits shadow 06:27:01 13° 245° (WSW) 1,827 ? -21.4°
Maximum altitude 06:28:40 16° 269° (W) 1,692 ? -21.5°
Drops below altitude 10° 06:31:23 10° 307° (NW) 2,054 ? -21.6°
Sets 06:34:27 0° 330° (NNW) 2,973 ? -21.7°
